[Iaude] MPEC V112: 2023 VJ3 [a=3.20,e=0.60,i=26.8,H=21.6]
    mpec at marsden.cfa.harvard.edu 
    mpec at marsden.cfa.harvard.edu
       
    Wed Nov  8 06:46:03 EST 2023
    
    
  
M.P.E.C. 2023-V112                             Issued 2023 November 8, 11:44 UT
     The Minor Planet Electronic Circulars contain information on unusual
         minor planets, routine data on comets and natural satellites,
         and occasional editorial announcements.  They are published
    on behalf of Division F of the International Astronomical Union by the
          Minor Planet Center, Smithsonian Astrophysical Observatory,
                          Cambridge, MA 02138, U.S.A.
			  
             Prepared using the Tamkin Foundation Computer Network
                              MPC at CFA.HARVARD.EDU
            URL https://www.minorplanetcenter.net/    ISSN 1523-6714
                                    2023 VJ3                                    
Observations:
     K23V03J 1C2023 10 21.30852 04 36 39.24 +40 33 20.2          21.5 GVEV112G96
     K23V03J 1C2023 10 21.31359 04 36 39.59 +40 33 01.1          21.3 GVEV112G96
     K23V03J* C2023 11 04.58081704 48 34.201+23 04 19.01         20.59wXEV112F51
     K23V03J  C2023 11 04.59359804 48 34.270+23 03 18.15         21.10wXEV112F51
     K23V03J  C2023 11 04.61929704 48 34.460+23 01 15.92         21.53wXEV112F51
     K23V03J KC2023 11 05.28057204 48 45.16 +22 09 03.4          20.9 GVEV112H21
     K23V03J KC2023 11 05.28343504 48 45.19 +22 08 49.8          20.6 GVEV112H21
     K23V03J KC2023 11 05.28629904 48 45.20 +22 08 36.3          21.1 GVEV112H21
     K23V03J KC2023 11 05.28916104 48 45.21 +22 08 22.7          21.0 GVEV112H21
     K23V03J KC2023 11 05.29202304 48 45.21 +22 08 09.5          21.0 GVEV112H21
     K23V03J  C2023 11 05.58987204 48 47.858+21 44 48.40         20.65GVEV112F51
     K23V03J  C2023 11 05.59051404 48 47.863+21 44 45.51         21.07GVEV112F51
     K23V03J KC2023 11 08.06065904 49 05.84 +18 30 40.4          20.9 GVEV112L01
     K23V03J KC2023 11 08.06305304 49 05.85 +18 30 29.1          20.8 GVEV112L01
     K23V03J KC2023 11 08.06558004 49 05.85 +18 30 17.3          20.9 GVEV112L01
     K23V03J KC2023 11 08.06810404 49 05.80 +18 30 05.6          21.0 GVEV112L01
     K23V03J KC2023 11 08.07062704 49 05.80 +18 29 54.0          20.9 GVEV112L01
     K23V03J KC2023 11 08.14439 04 49 05.60 +18 24 07.2                VEV112204
     K23V03J KC2023 11 08.17041 04 49 05.53 +18 22 04.8          20.7 GVEV112204
Observer details:
204 Schiaparelli Observatory.  Observers L. Buzzi, G. Galli.  0.84-m f/3.5
    reflector + CCD.
F51 Pan-STARRS 1, Haleakala.  Observers J. Bulger, T. Lowe, P. Minguez, A.
    Schultz, I. Smith.  Measurers K. Chambers, T. de Boer, J. Fairlamb, H.
    Gao, M. Huber, C.-C. Lin, E. Magnier, Y. Ramanjooloo, R. Wainscoat, R.
    Weryk.  1.8-m Ritchey-Chretien + CCD.
G96 Mt. Lemmon Survey.  Observer J. K. Hogan.  Measurers B. Gray, D. Rankin,
    F. C. Shelly.  1.5-m reflector + 10K CCD.
H21 Astronomical Research Observatory, Westfield.  Observer R. Holmes.
    Measurers T. Linder, R. Holmes, L. Horn.  0.81-m f/4.0 astrograph + CCD.
L01 Visnjan Observatory, Tican.  Observer K. Korlevic.  1.0-m f/2.9 reflector
    + CCD.
Orbital elements:
2023 VJ3                                                 Earth MOID = 0.3130 AU
Epoch 2023 Sept. 13.0 TT = JDT 2460200.5                Veres                   
M 355.50887              (2000.0)            P               Q                  
n   0.17250170     Peri.  157.21298     +0.85389136     -0.38763004             
a   3.1960027      Node   230.42303     +0.38044384     +0.92024372             
e   0.5992823      Incl.   26.78089     +0.35515073     -0.05380000             
P   5.71           H   21.64          G   0.15           U   7                  
Residuals in seconds of arc
231021 G96  0.4+  0.1-    231105 H21  0.0   0.2-    231108 L01  0.1+  0.1-
231021 G96  0.4-  0.1+    231105 H21  0.0   0.3-    231108 L01  0.4-  0.1+
231104 F51  0.1+  0.0     231105 H21  0.2-  0.0     231108 L01  0.2-  0.3+
231104 F51  0.1-  0.1-    231105 F51  0.1+  0.2+    231108 204  0.1-  0.0
231104 F51  0.0   0.1-    231105 F51  0.1+  0.3+    231108 204  0.1+  0.0
231105 H21  0.1-  0.1-    231108 L01  0.3-  0.1-
231105 H21  0.1+  0.2-    231108 L01  0.0   0.1-
Ephemeris:
2023 VJ3                 a,e,i = 3.20, 0.60, 27                  q = 1.2807
Date    TT    R. A. (2000) Decl.     Delta      r    Elong.  Phase     V
2023 10 09    04 09 40.0 +51 31 01   0.4487  1.2807   119.4    42.8    22.1
...
2023 10 24    04 40 18.2 +37 34 12   0.3846  1.2927   134.2    33.5    21.5
...
2023 11 01    04 47 11.5 +27 44 46   0.3691  1.3087   143.8    26.6    21.3
...
2023 11 07    04 49 01.3 +19 53 58   0.3688  1.3248   150.6    21.6    21.1
2023 11 08    04 49 05.9 +18 35 39   0.3698  1.3279   151.6    20.8    21.1
2023 11 09    04 49 07.1 +17 17 49   0.3711  1.3310   152.5    20.1    21.1
...
2023 11 15    04 48 13.7 +09 49 13   0.3850  1.3515   156.7    16.9    21.1
...
2023 11 23    04 45 15.1 +01 13 42   0.4194  1.3834   157.0    16.2    21.3
...
2023 12 08    04 38 36.9 -09 21 54   0.5243  1.4557   147.7    21.2    22.1
M. P. C. Staff               (C) Copyright 2023 MPC           M.P.E.C. 2023-V112
    
    
More information about the Iaude
mailing list